Notices

What's New in latest Release from April 7th, 2021:

- Updated Glossary, including Speed of Maximum Gust, and Total Hourly Precipitation

- Updated national and regional climate services offices contacts and prices information

- Addition of station inventory lists for 1981-2010, 1971-2000, and 1961-1990 Normals.

If you haven't already, please take our survey and provide feedback about our website: https://eccc.sondage-survey.ca/f/LanguageSelection.aspx?s=442ca660-fcf1-47c0-95a9-59707d6fd709

Hourly Data Report for February 27, 2004

SHERBROOKE A
QUEBEC

45°26'00.000" N
71°41'00.000" W
241.40 m
7028124
71610
YSC

Download Data

Hourly Data (February 2004)
Hourly Data Report for February 27, 2004
TIME
LST
Temp Definition
°C
Dew Point Definition
°C
Rel Hum Definition
%
Precip. Amount Definition
mm

Wind Dir Definition
10's deg

Wind Spd Definition
km/h
Visibility Definition
km
Stn Press Definition
kPa
Hmdx Definition


Wind Chill Definition


Weather Definition


00:00 -19.7 -25.8 58   9 4 15.0 99.95   -23  
01:00 -22.3 -27.4 63     0 15.0 99.95      
02:00 -23.0 -28.1 63     0 15.0 99.98      
03:00 -23.4 -28.7 62     0 15.0 99.95      
04:00 -24.2 -29.7 60     0 15.0 99.96      
05:00 -24.9 -29.9 63     0 15.0 100.01      
06:00 -24.2 -29.9 59   11 4 15.0 100.02   -28  
07:00 -24.6 -30.4 59     0 15.0 100.02      
08:00 -19.8 -26.1 57     0 24.1 100.05     Clear
09:00 -16.4 -24.8 48   28 6 24.1 100.04   -21 Clear
10:00 -11.2 -22.6 38   27 13 24.1 100.00   -18 Clear
11:00 -9.1 -21.7 35   27 9 24.1 99.95   -14 Clear
12:00 -7.1 -20.8 33   27 13 24.1 99.86   -13 Clear
13:00 -5.4 -20.0 31   26 17 24.1 99.76   -11 Clear
14:00 -3.7 -19.3 29   32 11 24.1 99.69   -8 Clear
15:00 -3.8 -18.7 30   27 19 24.1 99.66   -10 Clear
16:00 -3.9 -18.9 30   30 17 24.1 99.65   -10 Clear
17:00 -4.4 -19.3 30   27 15 24.1 99.64   -10 Clear
18:00 -4.7 -20.5 28   23 9 15.0 99.67   -9  
19:00 -5.3 -21.1 28   25 7 15.0 99.68   -9  
20:00 -6.9 -21.3 31   25 6 15.0 99.69   -10  
21:00 -8.4 -20.3 38   29 15 15.0 99.65   -15  
22:00 -9.5 -20.7 40   26 9 15.0 99.63   -14  
23:00 -14.7 -23.0 49   20 6 15.0 99.62   -19  

Notes on Data Quality.

Legend

  • E = Estimated
  • M = Missing
  • NA = Not Available*
  • [empty] = Indicates an unobserved value
Date modified: